Regional Weather Roundup
Issued by NWS Grand Forks, ND

Home | Current Version | Previous Version | Text Only | Print | Product List | Glossary Off
Versions: 1 2 3 4 5 6 7 8 9 10 11 12 13 14 15 16 17 18 19 20 21 22 23 24 25 26 27 28 29 30 31 32 33 34 35 36 37 38 39 40 41 42 43 44 45 46 47 48 49 50

000
ASUS43 KFGF 191831
RWRFGF
PRAIRIE TO PINES  WEATHER ROUNDUP
NATIONAL WEATHER SERVICE EASTERN NORTH DAKOTA/GRAND FORKS ND
1200 PM CST THU JAN 19 2017

 **SATELLITE DATA USED TO AUGMENT SKY COVER AT AUTOMATED STATIONS**
 *****  WEATHER ACROSS EASTERN NORTH DAKOTA  *****

CITY           SKY/WX    TMP DP  RH WIND       PRES   REMARKS
GRAND FORKS    CLOUDY    27  23  85 S18       29.56F FOG     WCI  14
6HR MIN TEMP:  22; 6HR MAX TEMP:  26;

GRAND FRKS AFB MOSUNNY   27  25  93 S12       29.55F WCI  16
DEVILS LAKE    FAIR      31  23  72 S5        29.50F
6HR MIN TEMP:  16; 6HR MAX TEMP:  31;

FARGO          FAIR      36  32  85 S12       29.60F
WAHPETON ARPT  FAIR      36  32  87 SE12      29.62F
$$

 ***** WEATHER ACROSS CENTRAL AND WESTERN NORTH DAKOTA  *****

CITY           SKY/WX    TMP DP  RH WIND       PRES   REMARKS
BISMARCK       FAIR      20  14  77 SE6       29.54S WCI  12
6HR MIN TEMP:   8; 6HR MAX TEMP:  24;

MINOT          FAIR      38  28  67 S10       29.45F
6HR MIN TEMP:  22; 6HR MAX TEMP:  38;

JAMESTOWN      FAIR      23  19  85 S5        29.54F WCI  17
6HR MIN TEMP:  15; 6HR MAX TEMP:  23;

MINOT AFB      FAIR      32  27  81 W7        29.45F
GARRISON         N/A     20  16  84 CALM      29.49S
WILLISTON      FAIR      29  19  66 CALM      29.49F
6HR MIN TEMP:  13; 6HR MAX TEMP:  29;

DICKINSON      FAIR      30  21  69 W3        29.46F
6HR MIN TEMP:  19; 6HR MAX TEMP:  31;

HETTINGER      FAIR      26  18  71 W6        29.50F WCI  19
6HR MIN TEMP:   6; 6HR MAX TEMP:  26;

$$

 *****  OTHER AIRPORT OBSERVATIONS IN OUR AREA  *****

CITY           SKY/WX    TMP DP  RH WIND       PRES   REMARKS
WALHALLA       NOT AVBL
GRAFTON AIRPOR CLOUDY    23  23 100 S14       29.57F FOG     WCI  11
VALLEY CITY AR MIX PCPN  25  25 100 S14       29.57F VSB 1/2 WCI  13
CANDO          NOT AVBL
CAVALIER APRT    N/A     27  23  86 S12       29.52F WCI  16
GWINNER        FAIR      34  34 100 SE7       29.59F
SHEYENNE NWR     N/A     29  25  86 CALM      29.95S
ROLLA            N/A    N/A N/A N/A MISG        N/A
 ***** THE ABOVE OBSERVATIONS ARE NON NWS ARE NOT QUALITY
       CONTROLLED AND MAY MIS-REPORT RAIN FOR SNOW...
$$

  *****  WEATHER ACROSS NORTHERN MINNESOTA  *****

CITY           SKY/WX    TMP DP  RH WIND       PRES   REMARKS
FLAG ISLAND    FAIR      28  25  86 S20       29.57F WCI  15
WARROAD        FAIR      37  30  75 S9G18     29.58F
ROSEAU         PTSUNNY   30  27  86 S16       29.57F WCI  19
HALLOCK        CLOUDY    28  27  93 S21       29.55S FOG     WCI  15
THF RVR FALLS  CLOUDY    35  33  92 S15       29.60F FOG
6HR MIN TEMP:  24; 6HR MAX TEMP:  35; 6HR PCP: TRACE;

BAUDETTE       CLOUDY    32  29  88 S8        29.60F FOG     WCI  25
6HR MIN TEMP:  25; 6HR MAX TEMP:  31;

WASKISH        CLOUDY    37  34  87 S6        29.63S
CROOKSTON      FAIR      34  32  93 S16       29.60F FOG     WCI  23
STEPHEN NDAWN    N/A     30  28  93 S20         N/A  WCI  18
GREENBUSH NDAW   N/A     34  32  93 S15         N/A  WCI  24
$$
  *****  WEATHER ACROSS CENTRAL AND WEST MINNESOTA  *****

CITY           SKY/WX    TMP DP  RH WIND       PRES   REMARKS
FOSSTON        FAIR      37  30  75 S13       29.60F
BEMIDJI        CLOUDY    35  33  92 S9        29.62F
PARK RAPIDS    PTSUNNY   36  33  89 S6        29.63F FOG
6HR MIN TEMP:  29; 6HR MAX TEMP:  35;

ELBOW LAKE     FAIR      36  33  90 E12       29.64F FOG
6HR MIN TEMP:  28; 6HR MAX TEMP:  35;

WADENA         FAIR      39  34  81 S6        29.65F
DETROIT LAKES  FAIR      36  34  93 SE12      29.63F
MOORHEAD       FAIR      34  30  86 S14       29.61F WCI  24
FERGUS FALLS   FAIR      37  36  93 S10       29.67F
MORRIS MN      FAIR      37  34  87 SE20      29.64S
STAPLES        FAIR      37  34  87 S7        29.66F
$$
  *****  WEATHER ELSEWHERE ACROSS MINNESOTA  *****

CITY           SKY/WX    TMP DP  RH WIND       PRES   REMARKS
DULUTH         FAIR      39  35  86 S9        29.71F
6HR MIN TEMP:  33; 6HR MAX TEMP:  39;

INTRNTL FALLS  CLOUDY    35  31  85 S7        29.64R FOG
6HR MIN TEMP:  22; 6HR MAX TEMP:  34;

ELY            PTSUNNY   36  34  93 S7        29.68S
CLOQUET        FAIR      39  32  75 S9        29.71F
WHEATON        FAIR      43  39  87 SE12      29.64S
BRAINERD       FAIR      38  34  85 S9        29.69F
6HR MIN TEMP:  32; 6HR MAX TEMP:  38;

HIBBING        FOG       33  33 100 S9        29.68F VSB 1/4
6HR MIN TEMP:  30; 6HR MAX TEMP:  33;

ALEXANDRIA     FAIR      38  34  85 S12       29.66F
6HR MIN TEMP:  30; 6HR MAX TEMP:  38;

SAINT CLOUD    FAIR      38  34  85 SE13      29.72F
6HR MIN TEMP:  23; 6HR MAX TEMP:  38;

MINNEAPOLIS    PTSUNNY   35  31  85 S13       29.78F
6HR MIN TEMP:  30; 6HR MAX TEMP:  36;

$$

  *****  WEATHER ACROSS SOUTH DAKOTA  *****

CITY           SKY/WX    TMP DP  RH WIND       PRES   REMARKS
SIOUX FALLS    FOG       36  36 100 S14       29.68F VSB 1/4
6HR MIN TEMP:  35; 6HR MAX TEMP:  36;

BROOKINGS      FOG       35  33  92 S16       29.64F VSB 1/4
WATERTOWN      FAIR      34  33  96 S14       29.60F WCI  25
6HR MIN TEMP:  28; 6HR MAX TEMP:  34;

HURON          FOG       34  34 100 S17       29.59F VSB 1/2 WCI  23
6HR MIN TEMP:  33; 6HR MAX TEMP:  35;

SISSETON         N/A     38  36  92 S10       29.59F
ABERDEEN       FOG       33  31  92 S9        29.59S VSB 1/4
6HR MIN TEMP:  15; 6HR MAX TEMP:  34;

MITCHELL       FOG       37  37 100 S17G24    29.62F VSB 1/4
PIERRE         FAIR      21  19  92 CALM      29.53F
6HR MIN TEMP:   8; 6HR MAX TEMP:  22;

MOBRIDGE       FAIR      17  11  77 CALM      29.51F
RAPID CITY     FAIR      43  27  53 N7        29.47F
6HR MIN TEMP:  21; 6HR MAX TEMP:  45;

$$

  *****  SOME WEATHER IN NEARBY STATES *****

CITY           SKY/WX    TMP DP  RH WIND       PRES   REMARKS
GLASGOW MT     FAIR      25  19  78 W5        29.46R WCI  19
6HR MIN TEMP:  18; 6HR MAX TEMP:  26;

GREAT FALLS MT FAIR      41  28  60 MISG      29.47S
6HR MIN TEMP:  38; 6HR MAX TEMP:  42;

CHEYENNE WY    FAIR      50  14  23 S7        29.60S
6HR MIN TEMP:  32; 6HR MAX TEMP:  51;

SCOTTSBLUFF NE FAIR      43  27  53 CALM      29.57F
6HR MIN TEMP:  21; 6HR MAX TEMP:  43;

OMAHA NE       CLOUDY    42  38  85 SE9       29.73F FOG
6HR MIN TEMP:  30; 6HR MAX TEMP:  42;

DES MOINES IA  DRIZZLE   39  37  92 E5        29.79F FOG
6HR MIN TEMP:  32; 6HR MAX TEMP:  39; 6HR PCP:  0.04;

DAVENPORT IA   CLOUDY    39  36  89 E9        29.88F FOG
6HR MIN TEMP:  29; 6HR MAX TEMP:  39;

CHICAGO IL     CLOUDY    39  36  89 S5        29.94F FOG
6HR MIN TEMP:  33; 6HR MAX TEMP:  39;

EAU CLAIRE WI  FAIR      37  32  82 SE6       29.82F
6HR MIN TEMP:  28; 6HR MAX TEMP:  37;

LA CROSSE WI   CLOUDY    35  33  92 S10       29.87F FOG
6HR MIN TEMP:  34; 6HR MAX TEMP:  36;

$$

  *****  SOME NATIONAL WEATHER *****

CITY           SKY/WX    TMP DP  RH WIND       PRES   REMARKS
LA GUARDIA NY  FAIR      50  35  56 NW13      29.99F
6HR MIN TEMP:  43; 6HR MAX TEMP:  50;

RALEIGH NC     FAIR      59  39  47 SW6       30.06F
6HR MIN TEMP:  37; 6HR MAX TEMP:  59;

ATLANTA GA     PTSUNNY   70  57  63 S8        30.00F
6HR MIN TEMP:  56; 6HR MAX TEMP:  71;

NEW ORLEANS LA PTSUNNY   75  67  76 S17G25    29.91F
6HR MIN TEMP:  69; 6HR MAX TEMP:  75;

OKLAHOMA CITY  CLOUDY    51  45  79 S16       29.67F
6HR MIN TEMP:  45; 6HR MAX TEMP:  51;

ALBUQUERQUE NM PTSUNNY   43  30  60 CALM      29.94F
6HR MIN TEMP:  30; 6HR MAX TEMP:  43;

SALT LAKE CITY LGT SNOW  32  30  92 CALM      29.80S FOG
6HR MIN TEMP:  26; 6HR MAX TEMP:  31; 6HR PCP:  0.07;

LOS ANGELES CA PTSUNNY   59  55  87 W16G22    29.97R
6HR MIN TEMP:  53; 6HR C1F1C2F2C3F3C4F4C5F5C6F6C7F7C8F8C9F9CaFaCbFbCcFcCd!


USA.gov is the U.S. government's official web portal to all federal, state and local government web resources and services.